Date,TemperatureHighF,TemperatureAvgF,TemperatureLowF,DewpointHighF,DewpointAvgF,DewpointLowF,HumidityHigh,HumidityAvg,HumidityLow,PressureMaxIn,PressureMinIn,WindSpeedMaxMPH,WindSpeedAvgMPH,GustSpeedMaxMPH,PrecipitationSumIn
2012-1-1,54.0,42.6,33.0,47.0,32.3,18.0,90,68,41,30.18,29.71,16,8,33,0.00
2012-1-2,33.0,24.9,20.0,24.0,18.2,12.0,97,76,58,30.32,30.10,12,7,23,0.00
2012-1-3,28.0,20.9,15.0,14.0,11.2,8.0,82,67,46,30.46,30.23,8,4,14,0.00
2012-1-4,43.0,33.0,23.0,30.0,21.0,14.0,74,61,50,30.24,29.98,9,5,14,0.00
2012-1-5,54.0,40.2,29.0,33.0,30.0,26.0,92,69,43,30.13,29.92,9,4,16,0.00
2012-1-6,59.0,48.6,40.0,36.0,33.5,31.0,70,57,40,29.92,29.78,13,6,18,0.00
2012-1-7,51.0,44.1,37.0,45.0,33.3,29.0,82,67,42,30.20,29.79,7,2,12,0.00
2012-1-8,45.0,36.8,29.0,31.0,29.1,27.0,96,75,50,30.36,30.21,7,1,9,0.00
2012-1-9,51.0,40.5,31.0,31.0,27.3,24.0,87,62,35,30.28,30.08,6,1,9,0.00
2012-1-10,54.0,41.9,32.0,34.0,29.9,25.0,80,63,44,30.11,29.87,6,1,12,0.00
2012-1-11,45.0,42.3,38.0,45.0,39.8,30.0,99,91,64,29.87,29.42,7,2,10,0.60
2012-1-12,42.0,30.1,15.0,42.0,28.1,10.0,99,92,75,29.72,29.47,15,6,23,0.10
2012-1-13,20.0,17.2,15.0,16.0,13.1,9.0,94,83,78,30.11,29.72,14,8,23,0.00
2012-1-14,26.0,21.5,16.0,22.0,17.7,14.0,93,85,75,30.25,30.06,7,2,12,0.00
2012-1-15,33.0,23.7,14.0,25.0,19.0,13.0,97,83,64,30.47,30.24,7,3,14,0.00
2012-1-16,52.0,41.2,29.0,51.0,37.3,25.0,99,86,67,30.24,29.85,12,6,18,0.10
2012-1-17,56.0,44.6,29.0,56.0,42.0,24.0,99,90,77,30.18,29.64,14,8,26,1.30
2012-1-18,30.0,26.3,23.0,24.0,19.6,16.0,84,76,62,30.33,30.03,12,3,18,0.10
2012-1-19,35.0,27.5,17.0,28.0,22.8,12.0,90,82,70,30.16,29.91,8,5,16,0.00
2012-1-20,28.0,21.0,14.0,28.0,16.5,9.0,99,83,74,30.20,29.88,9,5,14,0.10
2012-1-21,28.0,23.7,21.0,28.0,23.1,20.0,99,97,96,30.23,29.90,6,2,9,0.10
2012-1-22,55.0,34.2,25.0,55.0,34.2,25.0,99,99,98,30.19,29.69,9,4,18,0.00
2012-1-23,56.0,46.0,38.0,55.0,42.5,32.0,99,88,75,30.01,29.56,15,8,26,1.10
2012-1-24,38.0,33.3,32.0,33.0,29.2,27.0,90,85,80,30.38,30.01,6,3,10,0.10
2012-1-25,35.0,31.5,28.0,34.0,29.9,26.0,99,94,84,30.37,30.09,7,2,10,0.10
2012-1-26,43.0,38.4,34.0,43.0,38.4,34.0,99,99,99,30.08,29.57,8,3,13,1.30
2012-1-27,38.0,35.9,34.0,36.0,33.5,30.0,99,91,75,30.07,29.62,8,4,16,0.20
2012-1-28,39.0,34.9,31.0,34.0,25.3,16.0,99,71,40,30.29,29.93,12,5,23,0.10
2012-1-29,43.0,34.2,29.0,25.0,22.0,19.0,72,61,45,30.30,30.11,15,5,25,0.10
2012-1-30,58.0,41.3,26.0,34.0,27.9,20.0,83,61,37,30.30,30.07,12,5,17,0.00
2012-1-31,57.0,52.2,49.0,51.0,39.0,29.0,99,64,39,30.11,30.00,14,6,26,0.20
2012-2-1,62.0,53.1,44.0,54.0,48.2,41.0,99,85,55,30.10,30.01,6,2,9,0.40
2012-2-2,54.0,43.2,35.0,43.0,38.4,35.0,99,85,56,30.39,30.10,6,1,9,0.10
2012-2-3,53.0,43.3,34.0,40.0,37.0,34.0,98,80,55,30.44,30.26,8,2,10,0.00
2012-2-4,46.0,41.0,39.0,40.0,38.9,37.0,99,92,71,30.27,30.07,10,5,16,0.40
2012-2-5,46.0,39.5,35.0,39.0,34.4,28.0,99,83,52,30.27,30.09,9,3,10,0.20
2012-2-6,50.0,38.5,28.0,35.0,30.2,27.0,99,75,42,30.26,30.15,8,1,13,0.00
2012-2-7,37.0,32.8,31.0,33.0,30.9,29.0,99,93,80,30.29,30.19,7,1,10,0.00
2012-2-8,35.0,33.7,32.0,34.0,31.8,30.0,99,93,83,30.33,30.27,6,2,9,0.00
2012-2-9,33.0,30.8,30.0,32.0,26.4,22.0,96,84,72,30.35,30.22,7,2,12,0.00
2012-2-10,34.0,31.8,30.0,34.0,28.8,24.0,99,89,74,30.22,29.93,14,4,24,0.10
2012-2-11,29.0,19.3,16.0,28.0,14.0,11.0,98,80,68,30.39,29.97,15,8,29,0.10
2012-2-12,35.0,24.0,15.0,21.0,14.1,8.0,76,66,53,30.41,30.30,9,4,15,0.00
2012-2-13,34.0,28.7,21.0,22.0,17.9,15.0,85,65,49,30.30,29.98,8,2,14,0.00
2012-2-14,36.0,33.4,29.0,35.0,32.2,24.0,99,95,69,30.11,29.87,9,2,14,0.00
2012-2-15,45.0,39.0,34.0,41.0,36.5,32.0,99,91,74,30.20,30.03,9,3,14,0.20
2012-2-16,47.0,43.1,37.0,46.0,41.0,35.0,99,92,76,30.20,29.96,9,2,15,0.10
2012-2-17,36.0,35.0,34.0,35.0,34.2,34.0,98,97,94,30.22,30.19,3,1,3,0.00
2012-2-20,38.0,38.0,38.0,27.0,25.3,25.0,63,60,58,30.06,30.04,7,5,9,0.00
2012-2-21,48.0,43.2,36.0,43.0,36.7,25.0,96,78,58,30.04,29.76,14,6,25,0.20
2012-2-22,57.0,47.2,39.0,40.0,36.4,31.0,94,69,39,29.85,29.44,15,6,26,0.10
2012-2-23,50.0,46.5,42.0,42.0,39.8,37.0,83,78,69,29.52,29.35,6,2,8,0.00
2012-2-24,47.0,39.0,32.0,42.0,31.9,21.0,94,76,62,30.01,29.35,16,7,29,0.00
2012-2-25,35.0,30.3,26.0,23.0,18.7,16.0,80,62,46,30.38,30.00,15,5,26,0.00
2012-2-26,51.0,36.6,23.0,26.0,22.0,19.0,85,59,30,30.40,30.17,10,4,18,0.00
2012-2-27,55.0,45.0,35.0,31.0,25.7,21.0,68,48,28,30.49,30.19,10,4,20,0.00
2012-2-28,59.0,43.4,28.0,38.0,30.0,24.0,90,63,34,30.49,29.97,7,3,10,0.00
2012-2-29,69.0,60.6,50.0,62.0,43.8,28.0,99,59,26,29.97,29.58,17,8,43,0.10
2012-3-1,56.0,46.0,36.0,35.0,31.6,29.0,77,58,42,29.92,29.75,10,4,18,0.10
2012-3-2,65.0,50.1,38.0,61.0,43.2,32.0,96,77,60,29.80,29.27,16,7,32,0.60
2012-3-3,42.0,36.2,34.0,32.0,27.5,21.0,92,71,53,29.89,29.70,10,6,17,0.10
2012-3-4,40.0,33.9,30.0,30.0,23.2,19.0,91,66,43,29.90,29.84,9,3,16,0.00
2012-3-5,39.0,32.0,27.0,31.0,25.3,21.0,99,78,50,30.44,29.88,9,4,15,0.00
2012-3-6,66.0,46.4,29.0,34.0,28.5,24.0,86,55,28,30.43,30.17,12,7,22,0.00
2012-3-7,68.0,59.2,49.0,48.0,38.3,26.0,60,46,30,30.29,30.07,16,9,28,0.00
2012-3-8,63.0,51.0,37.0,56.0,44.9,30.0,99,81,59,30.32,29.98,13,7,24,1.30
2012-3-9,44.0,38.7,32.0,30.0,24.9,20.0,81,59,39,30.54,30.31,13,5,23,0.10
2012-3-10,54.0,39.9,27.0,29.0,24.3,21.0,82,56,36,30.55,30.36,7,2,12,0.00
2012-3-11,65.0,51.9,36.0,38.0,31.4,-99.9,68,49,33,30.39,30.19,8,3,15,0.00
2012-3-12,66.0,59.6,54.0,61.0,54.1,36.0,97,84,42,30.19,29.91,12,8,22,0.00
2012-3-13,76.0,66.8,60.0,61.0,55.1,47.0,96,70,36,30.14,29.98,9,3,15,0.00
2012-3-14,79.0,65.9,52.0,60.0,53.1,48.0,96,66,40,30.18,30.06,9,3,17,0.00
2012-3-15,78.0,67.5,59.0,63.0,58.1,51.0,93,73,44,30.14,30.05,16,5,32,0.00
2012-3-16,71.0,62.2,56.0,60.0,57.3,55.0,99,85,62,30.16,30.09,7,3,12,0.00
2012-3-17,75.0,63.9,51.0,64.0,58.4,51.0,99,84,59,30.16,30.05,9,3,14,0.30
2012-3-18,80.0,68.7,60.0,63.0,59.4,55.0,97,75,44,30.16,30.03,9,4,15,0.30
2012-3-19,80.0,71.4,63.0,61.0,57.9,54.0,87,64,44,30.13,30.01,9,3,16,0.00
2012-3-20,83.0,73.1,65.0,58.0,53.4,-99.9,67,52,38,30.13,30.02,8,3,16,0.00
2012-3-21,83.0,73.1,62.0,58.0,54.8,52.0,76,55,35,30.17,30.05,9,2,13,0.00
2012-3-22,80.0,71.1,65.0,60.0,55.5,-99.9,73,60,43,30.14,30.03,9,-4,15,0.00
2012-3-23,68.0,61.8,54.0,63.0,61.0,54.0,99,97,73,30.09,29.77,7,2,10,2.90
2012-3-24,65.0,56.8,51.0,55.0,50.9,45.0,99,82,50,29.87,29.79,6,1,9,0.80
2012-3-25,67.0,60.2,55.0,58.0,55.3,50.0,99,84,68,30.04,29.86,7,2,12,0.00
2012-3-26,60.0,52.5,43.0,55.0,41.9,33.0,89,68,51,30.29,30.04,7,4,14,0.00
2012-3-27,65.0,50.0,36.0,43.0,33.7,27.0,76,56,31,30.29,29.98,7,4,12,0.00
2012-3-28,76.0,66.6,57.0,58.0,45.4,31.0,73,50,20,29.99,29.89,12,4,20,0.00
2012-3-29,63.0,55.2,45.0,45.0,41.8,38.0,88,62,41,30.09,29.97,5,1,12,0.00
2012-3-30,80.0,61.2,50.0,62.0,49.6,41.0,99,69,38,29.98,29.66,12,4,23,3.20
2012-3-31,61.0,51.2,46.0,61.0,48.6,45.0,99,91,80,29.93,29.80,6,2,10,3.20
2012-4-1,74.0,57.0,44.0,64.0,53.2,43.0,99,89,64,29.92,29.66,10,3,16,0.60
2012-4-2,69.0,60.1,50.0,63.0,49.3,42.0,96,70,40,29.93,29.67,10,4,16,0.10
2012-4-3,83.0,67.7,54.0,61.0,50.5,43.0,69,55,37,29.94,29.77,5,1,9,0.00
2012-4-4,74.0,62.8,57.0,61.0,55.8,41.0,98,79,55,29.83,29.76,6,2,12,0.50
2012-4-5,57.0,52.2,44.0,41.0,35.6,31.0,70,54,41,30.02,29.80,10,5,17,0.10
2012-4-6,60.0,46.5,34.0,35.0,32.9,30.0,91,62,34,30.22,30.02,8,2,14,0.10
2012-4-7,66.0,52.8,39.0,36.0,29.5,23.0,65,44,19,30.32,30.16,5,1,9,0.00
2012-4-8,63.0,57.8,52.0,47.0,33.8,19.0,80,43,18,30.25,30.13,12,3,20,0.00
2012-4-9,65.0,56.4,48.0,39.0,29.4,20.0,62,38,18,30.13,29.94,13,4,28,0.00
2012-4-10,56.0,47.1,38.0,31.0,25.8,20.0,66,44,29,30.10,29.97,13,4,22,0.00
2012-4-11,52.0,41.8,31.0,30.0,27.5,25.0,82,58,38,30.25,30.10,8,2,15,0.00
2012-4-12,42.0,38.2,36.0,32.0,31.3,31.0,83,77,64,30.25,30.24,1,0,2,0.00
2012-4-22,51.0,47.9,46.0,32.0,31.0,29.0,59,52,46,29.97,29.93,5,3,13,0.00
2012-4-23,58.0,48.2,36.0,29.0,25.4,19.0,73,44,23,29.97,29.82,13,6,38,0.00
2012-4-24,62.0,50.7,39.0,46.0,30.4,20.0,78,48,22,29.84,29.75,8,3,15,0.00
2012-4-25,70.0,58.8,48.0,60.0,53.5,48.0,99,84,59,29.81,29.64,7,3,12,0.10
2012-4-26,72.0,62.7,49.0,62.0,53.2,29.0,99,73,48,30.06,29.57,14,4,23,0.00
2012-4-27,60.0,48.8,37.0,34.0,29.3,20.0,79,49,28,30.24,30.06,9,3,16,0.00
2012-4-28,53.0,49.4,46.0,50.0,43.0,33.0,99,80,49,30.14,29.97,12,4,18,0.20
2012-4-29,64.0,54.3,46.0,56.0,48.3,-99.9,97,82,72,30.20,30.08,8,4,12,0.10
2012-4-30,80.0,66.7,57.0,67.0,59.9,55.0,99,82,44,30.09,29.88,9,2,18,0.80
2012-5-1,75.0,65.8,61.0,70.0,64.4,61.0,99,95,78,30.05,29.85,10,2,17,2.10
2012-5-2,86.0,75.0,64.0,68.0,63.5,58.0,99,72,40,30.01,29.90,10,3,20,1.30
2012-5-3,84.0,75.6,66.0,67.0,62.8,57.0,96,67,41,30.08,29.94,9,3,22,0.00
2012-5-4,80.0,72.2,66.0,69.0,65.8,61.0,98,81,59,30.01,29.86,9,3,14,0.00
2012-5-5,84.0,72.4,64.0,70.0,65.3,61.0,99,80,47,30.00,29.87,7,1,12,0.00
2012-5-6,84.0,72.2,61.0,67.0,62.5,-99.9,99,76,47,30.04,29.88,7,1,10,0.00
2012-5-7,83.0,72.0,67.0,68.0,65.1,59.0,99,80,52,29.89,29.75,9,2,15,0.40
2012-5-8,73.0,65.1,58.0,67.0,56.3,46.0,99,76,44,29.91,29.78,9,3,13,0.40
2012-5-9,67.0,59.7,53.0,53.0,48.2,41.0,91,68,41,29.91,29.81,9,3,16,0.00
2012-5-10,68.0,57.1,46.0,51.0,43.3,38.0,94,64,35,30.03,29.90,8,2,15,0.00
2012-5-11,56.0,52.2,50.0,47.0,46.3,45.0,88,80,66,30.06,30.03,0,0,0,0.00
2012-5-13,64.0,62.1,60.0,61.0,59.6,57.0,99,92,78,30.11,30.05,8,3,13,0.00
2012-5-14,77.0,67.3,59.0,60.0,55.7,49.0,99,70,38,30.07,29.96,7,1,10,0.00
2012-5-15,81.0,69.0,55.0,61.0,46.9,30.0,99,55,16,30.02,29.93,6,1,9,0.00
2012-5-16,79.0,68.2,56.0,56.0,49.8,42.0,82,54,32,30.02,29.93,7,2,13,0.00
2012-5-17,73.0,63.0,52.0,44.0,40.3,36.0,69,45,26,30.13,30.03,7,2,13,0.00
2012-5-18,81.0,67.4,50.0,53.0,46.4,41.0,82,50,27,30.10,30.00,5,1,7,0.00
2012-5-19,87.0,73.6,59.0,59.0,54.0,49.0,81,53,29,30.11,30.03,7,1,10,0.00
2012-5-20,87.0,75.2,62.0,62.0,57.0,-99.9,89,57,34,30.14,29.98,5,0,8,0.00
2012-5-21,74.0,67.6,61.0,66.0,59.7,51.0,92,77,59,30.05,29.96,9,3,17,0.00
2012-5-22,75.0,63.7,54.0,57.0,51.9,48.0,95,68,40,30.01,29.87,6,1,12,0.00
2012-5-23,80.0,68.7,54.0,61.0,50.2,-99.9,93,60,36,29.92,29.80,6,1,9,0.00
2012-5-24,84.0,74.0,62.0,65.0,56.4,46.0,97,60,27,29.91,29.77,9,3,18,0.00
2012-5-25,87.0,77.6,70.0,68.0,62.6,53.0,74,61,49,30.05,29.81,7,2,12,0.00
2012-5-26,90.0,80.1,68.0,70.0,62.2,-99.9,97,62,35,30.12,30.02,8,1,12,0.00
2012-5-27,90.0,80.6,68.0,69.0,64.8,61.0,95,62,38,30.07,29.94,7,2,12,0.00
2012-5-28,90.0,81.3,70.0,70.0,63.0,-99.9,94,61,38,29.96,29.81,12,2,14,0.00
2012-5-29,80.0,74.1,68.0,70.0,66.8,62.0,99,79,64,29.90,29.77,9,2,12,0.20
2012-5-30,78.0,69.6,60.0,66.0,54.2,44.0,99,64,33,29.87,29.82,9,2,17,0.10
2012-5-31,78.0,64.9,54.0,64.0,54.1,49.0,99,71,38,29.90,29.67,8,2,15,0.20
2012-6-1,64.0,62.2,57.0,64.0,62.2,57.0,99,99,99,29.67,29.59,6,3,12,0.30
2012-6-5,72.0,67.4,59.0,54.0,50.0,46.0,74,54,41,29.95,29.85,6,2,12,0.00
2012-6-6,75.0,63.7,51.0,51.0,47.6,43.0,89,59,33,30.02,29.95,7,1,15,0.00
2012-6-7,81.0,69.2,54.0,53.0,47.9,42.0,88,52,25,30.10,30.01,6,1,8,0.00
2012-6-8,84.0,72.4,57.0,56.0,49.7,43.0,86,50,24,30.10,29.96,5,1,10,0.00
2012-6-9,86.0,74.1,58.0,59.0,52.3,43.0,90,51,24,30.03,29.92,7,1,10,0.00
2012-6-10,85.0,76.0,65.0,64.0,58.7,-99.9,81,59,40,30.01,29.94,7,2,16,0.00
2012-6-11,82.0,75.4,69.0,74.0,65.6,-99.9,97,77,63,29.95,29.80,6,2,10,0.10
2012-6-12,81.0,74.1,67.0,71.0,56.6,35.0,99,62,20,30.04,29.86,9,3,17,0.10
2012-6-13,80.0,69.5,55.0,55.0,49.7,44.0,80,51,34,30.11,30.03,8,2,13,0.00
2012-6-14,83.0,70.7,56.0,51.0,45.2,34.0,73,45,18,30.12,30.03,7,2,10,0.00
2012-6-15,88.0,75.2,57.0,59.0,52.3,46.0,88,49,24,30.11,30.03,5,1,9,0.00
2012-6-16,86.0,77.5,67.0,70.0,65.6,60.0,93,68,45,30.14,29.98,8,2,15,0.00
2012-6-17,84.0,76.9,71.0,70.0,65.9,-99.9,94,72,50,29.99,29.85,9,4,15,0.00
2012-6-18,88.0,79.5,70.0,70.0,64.7,58.0,96,64,37,29.94,29.85,12,4,18,0.00
2012-6-19,89.0,80.5,70.0,66.0,62.6,58.0,84,57,35,30.08,29.94,8,3,15,0.00
2012-6-20,90.0,80.6,69.0,68.0,62.4,56.0,91,58,32,30.14,29.98,9,2,17,0.00
2012-6-21,90.0,80.0,69.0,67.0,56.1,-99.9,91,56,29,30.02,29.87,10,3,16,0.00
2012-6-22,87.0,76.7,66.0,69.0,58.9,47.0,99,60,27,29.97,29.89,8,2,13,0.00
2012-6-23,86.0,75.6,61.0,58.0,52.0,45.0,83,48,25,30.01,29.95,8,1,14,0.00
2012-6-24,90.0,80.7,68.0,61.0,55.3,49.0,75,44,26,30.00,29.88,5,0,8,0.00
2012-6-25,84.0,77.4,68.0,63.0,54.4,40.0,72,48,22,29.96,29.86,6,2,13,0.00
2012-6-26,80.0,69.5,56.0,49.0,45.5,42.0,72,44,26,30.03,29.91,9,2,16,0.00
2012-6-27,67.0,66.2,66.0,49.0,49.0,49.0,54,54,53,29.94,29.94,0,0,0,0.00
2012-6-28,103.0,97.5,87.0,57.0,54.2,50.0,36,24,17,29.88,29.78,9,4,20,0.00
2012-6-29,101.0,85.4,75.0,71.0,63.4,57.0,72,49,26,29.88,29.77,12,1,18,0.00
2012-6-30,97.0,84.1,70.0,68.0,62.7,54.0,90,53,27,29.88,29.77,5,1,9,0.00
2012-7-1,96.0,81.1,67.0,73.0,67.0,63.0,99,65,34,30.02,29.86,20,2,29,1.90
2012-7-2,96.0,82.0,68.0,70.0,66.4,61.0,98,64,34,30.02,29.91,7,1,10,0.90
2012-7-3,95.0,84.0,71.0,71.0,64.7,59.0,86,55,31,29.99,29.85,7,2,10,0.00
2012-7-4,99.0,87.7,77.0,71.0,66.8,59.0,76,53,27,29.94,29.85,6,1,9,0.00
2012-7-5,100.0,88.6,76.0,73.0,61.7,-99.9,88,49,20,29.97,29.88,6,1,12,0.00
2012-7-6,101.0,89.2,75.0,72.0,66.3,58.0,88,52,25,29.98,29.88,5,1,6,0.00
2012-7-7,102.0,88.8,78.0,75.0,68.1,55.0,87,55,22,29.97,29.87,7,1,10,0.00
2012-7-8,93.0,82.5,74.0,73.0,69.9,66.0,89,67,45,29.97,29.89,7,1,10,0.01
2012-7-9,88.0,79.8,73.0,66.0,60.0,49.0,76,54,27,30.01,29.93,7,1,10,0.01
2012-7-10,90.0,79.2,66.0,62.0,55.5,46.0,82,50,22,30.02,29.95,5,1,8,0.00
2012-7-11,91.0,81.7,71.0,62.0,54.3,48.0,71,41,24,30.06,29.98,7,1,9,0.00
2012-7-12,89.0,78.0,66.0,67.0,59.8,52.0,74,55,37,30.06,30.00,9,1,13,0.00
2012-7-13,86.0,77.0,67.0,70.0,66.3,62.0,99,72,45,30.09,29.98,7,2,10,0.00
2012-7-14,82.0,74.9,71.0,75.0,71.3,68.0,99,89,70,30.11,30.02,7,2,16,0.10
2012-7-15,89.0,79.1,71.0,74.0,70.3,64.0,99,78,43,30.12,29.98,9,3,16,0.10
2012-7-16,92.0,80.9,72.0,74.0,70.4,63.0,99,73,39,30.04,29.88,8,2,13,1.10
2012-7-17,93.0,80.3,75.0,73.0,71.3,67.0,93,76,47,29.93,29.84,8,3,13,1.50
2012-7-18,94.0,78.8,73.0,77.0,73.9,70.0,99,87,46,29.95,29.85,13,1,17,0.70
2012-7-19,86.0,76.9,72.0,76.0,73.5,69.0,99,90,68,29.96,29.79,7,2,13,0.10
2012-7-20,77.0,73.2,69.0,75.0,70.1,62.0,99,90,69,30.01,29.82,6,2,9,0.00
2012-7-21,86.0,73.4,61.0,65.0,59.9,52.0,99,68,32,30.09,30.01,6,1,9,0.00
2012-7-22,88.0,77.4,65.0,68.0,63.4,60.0,99,65,40,30.13,30.04,5,1,9,0.00
2012-7-23,96.0,83.8,71.0,73.0,66.9,61.0,90,61,32,30.09,29.93,9,3,14,0.00
2012-7-24,91.0,84.9,80.0,73.0,69.9,67.0,77,61,46,29.97,29.86,7,2,12,0.00
2012-7-25,95.0,83.1,71.0,74.0,71.6,69.0,98,71,46,29.92,29.71,8,2,14,0.00
2012-7-26,93.0,85.7,81.0,71.0,68.0,64.0,70,56,39,29.75,29.67,10,4,18,0.00
2012-7-27,89.0,79.0,71.0,73.0,67.7,63.0,96,70,45,29.90,29.75,7,2,12,0.00
2012-7-28,83.0,74.1,66.0,70.0,63.4,59.0,98,72,45,30.04,29.90,5,1,9,0.00
2012-7-29,85.0,74.9,63.0,65.0,61.0,57.0,99,66,38,30.09,29.96,5,0,7,0.00
2012-7-30,89.0,77.6,64.0,66.0,62.0,58.0,98,63,37,29.99,29.88,5,1,8,0.00
2012-7-31,91.0,77.3,68.0,72.0,64.1,57.0,98,68,36,29.96,29.81,5,1,10,0.30
2012-8-1,89.0,77.7,66.0,71.0,62.6,51.0,99,66,27,29.91,29.84,5,2,10,0.30
2012-8-2,94.0,78.6,61.0,64.0,54.2,40.0,96,51,17,29.90,29.78,5,0,8,0.00
2012-8-3,84.0,78.5,73.0,73.0,66.7,58.0,87,68,49,29.91,29.81,7,2,10,0.00
2012-8-4,92.0,80.5,73.0,78.0,73.9,71.0,99,82,52,29.96,29.85,10,3,18,0.00
2012-8-5,86.0,77.9,72.0,76.0,69.8,59.0,99,79,41,30.09,29.91,8,3,22,0.10
2012-8-6,86.0,75.8,65.0,66.0,58.8,52.0,96,60,31,30.13,29.99,5,1,7,0.10
2012-8-7,92.0,77.8,62.0,62.0,55.8,42.0,95,54,18,30.00,29.91,6,1,9,0.00
2012-8-8,96.0,82.7,66.0,84.0,59.7,50.0,89,52,21,29.96,29.85,6,2,15,1.20
2012-8-9,88.0,85.5,67.0,86.0,73.4,59.0,99,70,38,29.96,29.72,7,2,12,1.20
2012-8-10,74.0,67.9,64.0,67.0,60.8,50.0,99,80,47,29.90,29.69,8,3,15,1.30
2012-8-11,78.0,68.0,58.0,59.0,53.4,46.0,97,64,34,29.98,29.89,9,2,14,0.00
2012-8-12,81.0,69.5,57.0,63.0,55.1,-99.9,99,66,33,30.03,29.96,5,0,7,0.00
2012-8-13,77.0,70.2,66.0,65.0,61.4,58.0,86,74,60,29.98,29.87,5,1,14,0.00
2012-8-14,75.0,70.0,66.0,67.0,63.7,60.0,99,81,62,29.92,29.85,6,2,13,0.00
2012-8-15,84.0,71.8,60.0,68.0,61.4,56.0,99,74,38,29.99,29.91,6,0,7,0.00
2012-8-16,85.0,73.3,63.0,67.0,62.6,58.0,97,72,43,29.98,29.80,10,3,16,0.30
2012-8-17,78.0,70.5,65.0,67.0,59.5,51.0,99,72,40,29.96,29.85,7,3,12,0.30
2012-8-18,78.0,67.3,56.0,58.0,50.7,38.0,99,61,24,29.99,29.88,5,1,12,0.00
2012-8-19,79.0,68.1,58.0,59.0,51.4,41.0,93,59,27,29.92,29.85,6,1,9,0.00
2012-8-20,80.0,69.9,59.0,59.0,52.5,47.0,91,58,32,29.99,29.89,5,1,9,0.00
2012-8-21,79.0,67.6,56.0,62.0,55.5,50.0,99,69,38,30.06,29.96,7,0,10,0.00
2012-8-22,82.0,69.8,55.0,60.0,53.9,46.0,99,63,28,30.12,30.03,6,1,9,0.00
2012-8-23,87.0,73.1,57.0,60.0,53.7,47.0,97,57,28,30.11,30.02,5,1,7,0.00
2012-8-24,89.0,76.4,60.0,62.0,56.3,51.0,96,55,27,30.08,29.97,6,1,10,0.00
2012-8-25,92.0,78.3,65.0,63.0,57.7,46.0,87,54,22,30.08,30.00,6,1,9,0.00
2012-8-26,88.0,78.2,66.0,67.0,62.7,59.0,90,61,38,30.11,29.97,8,2,13,0.00
2012-8-27,83.0,75.7,72.0,77.0,70.0,63.0,99,83,61,30.03,29.95,5,2,9,0.30
2012-8-28,84.0,73.6,62.0,65.0,60.1,55.0,96,66,38,30.06,29.98,6,2,10,0.30
2012-8-29,84.0,72.5,61.0,63.0,59.0,55.0,99,67,38,30.06,29.96,3,0,8,0.00
2012-8-30,88.0,74.2,59.0,60.0,55.6,50.0,96,57,28,30.09,29.98,6,1,9,0.00
2012-8-31,86.0,77.1,68.0,73.0,67.8,56.0,98,74,55,30.14,30.02,7,2,13,0.00
2012-9-1,81.0,77.5,75.0,76.0,73.5,72.0,96,88,78,30.05,29.92,8,2,13,0.00
2012-9-2,78.0,74.1,72.0,76.0,73.0,71.0,99,96,85,29.92,29.77,9,3,20,0.60
2012-9-3,79.0,73.7,71.0,77.0,73.6,71.0,99,99,87,29.85,29.78,6,1,8,0.50
2012-9-4,87.0,78.7,74.0,76.0,72.2,67.0,99,83,53,29.88,29.81,6,1,8,0.10
2012-9-5,85.0,73.8,69.0,77.0,71.0,67.0,99,92,60,29.88,29.77,6,1,13,0.10
2012-9-6,85.0,73.0,64.0,75.0,68.9,64.0,99,88,63,29.95,29.84,6,1,8,0.10
2012-9-7,88.0,77.0,66.0,74.0,68.5,61.0,99,78,42,29.90,29.63,7,2,15,1.40
2012-9-8,71.0,65.0,59.0,66.0,56.9,48.0,99,78,45,29.90,29.66,8,2,15,1.60
2012-9-9,73.0,63.3,53.0,58.0,54.0,51.0,99,74,46,30.06,29.87,6,1,12,0.10
2012-9-10,77.0,65.3,54.0,58.0,52.8,48.0,98,68,37,30.19,30.06,3,0,7,0.00
2012-9-11,79.0,66.6,53.0,56.0,52.0,48.0,97,64,34,30.24,30.13,6,1,9,0.00
2012-9-12,83.0,69.7,57.0,61.0,55.7,52.0,94,65,36,30.25,30.16,8,1,13,0.00
2012-9-13,67.0,66.0,65.0,64.0,62.4,60.0,93,88,79,30.25,30.19,0,0,2,0.00
2012-9-14,68.0,63.0,57.0,62.0,57.0,46.0,99,83,48,30.28,30.17,5,1,9,0.00
2012-9-15,75.0,62.2,50.0,55.0,49.4,45.0,99,68,35,30.32,30.15,5,0,8,0.00
2012-9-16,77.0,66.4,54.0,55.0,51.1,46.0,95,62,33,30.15,29.98,3,0,6,0.00
2012-9-17,73.0,66.3,61.0,68.0,62.8,56.0,99,89,70,30.00,29.73,6,1,7,0.20
2012-9-18,66.0,61.6,51.0,66.0,53.5,39.0,99,78,40,30.02,29.63,12,4,20,0.10
2012-9-19,69.0,54.7,41.0,48.0,41.0,35.0,99,66,29,30.14,30.02,7,1,12,0.00
2012-9-20,68.0,60.0,50.0,57.0,49.5,42.0,88,69,52,30.05,29.91,10,3,17,0.00
2012-9-21,72.0,61.0,49.0,62.0,54.1,45.0,99,81,43,29.99,29.69,7,1,14,0.30
2012-9-22,66.0,56.1,47.0,58.0,43.2,33.0,99,66,34,30.15,29.72,10,2,25,0.80
2012-9-23,61.0,49.8,39.0,45.0,39.0,-99.9,99,71,43,30.25,30.15,8,1,12,0.10
2012-9-24,68.0,53.2,38.0,46.0,39.7,33.0,99,67,28,30.26,30.03,7,2,13,0.00
2012-9-25,68.0,59.3,52.0,65.0,54.8,42.0,99,86,63,30.03,29.89,7,2,15,0.20
2012-9-26,70.0,65.1,61.0,68.0,64.4,61.0,99,97,87,30.07,29.92,8,2,15,0.40
2012-9-27,70.0,64.8,61.0,66.0,63.6,60.0,99,95,78,30.12,30.04,6,1,9,0.30
2012-9-28,71.0,62.3,57.0,63.0,58.5,52.0,99,88,59,30.10,30.01,3,0,8,0.10
2012-9-29,72.0,61.8,55.0,60.0,54.2,49.0,99,79,46,30.07,29.94,5,1,8,0.00
2012-9-30,71.0,59.6,50.0,55.0,49.2,39.0,99,73,31,29.95,29.82,6,1,9,0.00
2012-10-1,65.0,56.4,52.0,57.0,50.4,46.0,99,81,57,29.88,29.67,8,3,14,0.50
2012-10-2,65.0,58.5,53.0,64.0,58.1,53.0,99,98,93,29.88,29.64,6,1,9,0.50
2012-10-3,73.0,62.4,56.0,58.0,54.3,49.0,99,78,46,30.09,29.88,9,3,15,0.10
2012-10-4,76.0,62.4,55.0,57.0,54.4,52.0,95,78,48,30.18,30.10,10,3,18,0.00
2012-10-6,48.0,47.3,47.0,41.0,40.1,39.0,80,76,71,30.14,30.13,2,0,3,0.00
2012-10-7,49.0,45.3,42.0,40.0,36.3,32.0,84,72,52,30.18,30.12,6,2,9,0.00
2012-10-11,61.0,55.8,49.0,40.0,35.3,33.0,70,47,36,30.24,30.15,6,2,9,0.00
2012-10-12,48.0,47.2,46.0,41.0,29.4,-99.9,79,71,71,30.21,30.18,0,0,0,0.00
2012-10-13,72.0,63.2,44.0,64.0,54.8,-99.9,88,78,69,30.23,29.98,8,4,16,0.00
2012-10-14,72.0,67.4,60.0,63.0,59.2,54.0,93,76,54,29.98,29.67,16,8,26,0.30
2012-10-15,61.0,54.6,48.0,55.0,41.4,-99.9,96,67,42,29.96,29.79,10,3,20,0.10
2012-10-16,66.0,53.1,38.0,46.0,42.2,38.0,99,70,42,29.99,29.74,8,2,14,0.00
2012-10-17,71.0,63.0,53.0,53.0,49.2,45.0,91,63,42,29.75,29.47,12,5,18,0.10
2012-10-18,67.0,55.5,50.0,56.0,45.2,32.0,99,71,33,29.64,29.43,14,5,23,0.70
2012-10-19,52.0,48.9,47.0,47.0,42.6,37.0,99,80,58,29.72,29.54,8,3,15,0.10
2012-10-20,54.0,49.1,45.0,50.0,43.5,-99.9,98,87,67,29.99,29.71,7,3,13,0.10
2012-10-21,69.0,53.4,39.0,50.0,45.0,39.0,99,77,47,30.11,29.99,6,2,10,0.00
2012-10-22,77.0,65.8,56.0,55.0,52.4,48.0,79,63,44,30.09,29.96,9,3,17,0.00
2012-10-23,79.0,69.1,62.0,55.0,52.0,50.0,69,56,38,30.05,29.96,12,3,22,0.00
2012-10-24,79.0,68.4,59.0,57.0,52.7,50.0,76,59,38,30.07,29.98,8,3,14,0.00
2012-10-25,77.0,67.2,58.0,56.0,53.4,52.0,80,63,42,30.02,29.88,12,4,20,0.00
2012-10-26,67.0,47.8,43.0,55.0,45.4,42.0,99,92,63,30.21,29.91,13,5,20,0.40
2012-10-27,53.0,45.1,37.0,42.0,36.8,33.0,90,74,53,30.17,30.09,8,5,16,0.10
2012-10-28,50.0,43.1,36.0,36.0,34.1,32.0,92,72,54,30.13,30.06,10,5,17,0.00
2012-10-29,50.0,42.9,36.0,35.0,29.3,21.0,80,61,32,30.11,29.84,13,8,24,0.00
2012-10-30,43.0,40.8,39.0,39.0,35.7,32.0,97,82,65,29.84,29.62,15,10,31,0.10
2012-10-31,45.0,42.3,39.0,37.0,33.5,31.0,90,71,62,29.85,29.70,10,5,16,0.10
2012-11-1,45.0,38.8,33.0,34.0,29.8,25.0,74,70,64,29.88,29.83,5,1,8,0.00
2012-11-2,51.0,45.2,35.0,36.0,33.1,30.0,84,63,46,30.09,29.92,7,2,10,0.00
2012-11-3,41.0,38.2,34.0,40.0,36.4,33.0,98,94,74,30.17,30.09,6,1,10,0.30
2012-11-4,45.0,38.1,30.0,38.0,33.7,30.0,99,85,63,30.20,30.13,10,2,13,0.10
2012-11-5,46.0,36.6,27.0,35.0,31.0,27.0,99,81,57,30.18,30.08,5,1,8,0.00
2012-11-6,51.0,40.1,28.0,40.0,31.9,28.0,98,75,47,30.09,29.91,5,1,7,0.00
2012-11-7,51.0,43.1,38.0,43.0,39.7,35.0,99,88,58,30.14,29.89,8,2,12,0.00
2012-11-8,51.0,39.8,29.0,45.0,35.7,29.0,99,87,59,30.26,30.13,3,1,6,0.00
2012-11-9,61.0,46.5,32.0,43.0,38.4,32.0,99,76,51,30.22,30.07,9,4,15,0.00
2012-11-10,71.0,59.1,50.0,48.0,43.9,40.0,70,58,40,30.16,30.07,9,6,20,0.00
2012-11-11,67.0,60.3,53.0,50.0,43.9,41.0,65,55,44,30.19,29.98,13,7,23,0.00
2012-11-12,63.0,44.0,33.0,57.0,37.7,24.0,99,80,51,30.40,29.96,12,5,21,0.50
2012-11-13,41.0,34.2,28.0,28.0,25.8,13.0,89,72,40,30.51,30.40,6,1,9,0.10
2012-11-14,42.0,33.9,27.0,31.0,26.7,-99.9,90,77,60,30.52,30.38,7,1,9,0.00
2012-11-15,33.0,31.2,29.0,29.0,28.7,28.0,96,90,84,30.39,30.34,2,0,3,0.00
2012-11-17,49.0,45.0,41.0,33.0,32.4,31.0,68,61,54,30.46,30.45,2,0,3,0.00
2012-11-18,59.0,45.8,33.0,36.0,32.1,29.0,91,61,36,30.45,30.35,3,0,5,0.00
2012-11-19,59.0,46.6,34.0,38.0,33.5,29.0,88,63,37,30.37,30.18,6,0,6,0.00
2012-11-20,59.0,52.3,45.0,44.0,39.4,35.0,74,62,46,30.18,30.06,3,0,7,0.00
2012-11-21,62.0,52.7,46.0,47.0,43.6,-99.9,93,75,54,30.26,30.14,5,1,6,0.00
2012-11-22,64.0,50.5,38.0,45.0,41.3,37.0,98,74,45,30.20,30.00,9,3,17,0.00
2012-11-23,55.0,42.7,30.0,52.0,33.6,20.0,96,70,56,30.22,29.96,14,7,24,0.00
2012-11-24,34.0,28.6,26.0,23.0,20.9,19.0,82,73,61,30.27,30.11,8,2,16,0.00
2012-11-25,50.0,38.1,27.0,31.0,26.9,22.0,87,66,44,30.11,29.90,9,3,15,0.00
2012-11-26,49.0,41.0,32.0,34.0,31.0,29.0,95,69,48,30.27,30.03,8,2,13,0.00
2012-11-27,38.0,33.6,0.0,32.0,25.7,-99.9,97,78,60,30.39,30.27,6,2,12,0.00
2012-11-28,45.0,34.1,25.0,29.0,24.7,-99.9,95,72,49,30.42,30.32,5,1,7,0.00
2012-11-29,50.0,37.5,26.0,32.0,26.5,-99.9,90,70,48,30.39,30.19,7,2,15,0.00
2012-11-30,56.0,43.5,39.0,38.0,32.0,29.0,70,64,48,30.20,30.16,9,4,15,0.00
2012-12-2,59.0,59.0,59.0,59.0,59.0,59.0,99,99,99,30.12,30.10,3,1,7,0.00
2012-12-3,70.0,63.0,58.0,61.0,57.8,53.0,99,84,61,30.13,30.03,12,5,17,0.00
2012-12-4,62.0,55.2,44.0,59.0,50.4,42.0,99,85,70,30.23,30.02,9,4,15,0.40
2012-12-5,46.0,41.0,33.0,43.0,36.4,30.0,99,85,62,30.38,30.22,6,2,9,0.10
2012-12-6,50.0,38.7,29.0,45.0,32.8,-99.9,96,84,62,30.28,29.99,6,2,10,0.10
2012-12-7,53.0,48.9,46.0,53.0,48.1,-99.9,99,98,96,29.99,29.81,6,1,9,0.00
2012-12-8,52.0,49.1,44.0,52.0,48.6,43.0,99,98,93,30.02,29.82,7,2,15,0.00
2012-12-9,58.0,51.1,45.0,58.0,50.5,44.0,99,98,96,30.02,29.69,9,5,14,0.00
2012-12-10,51.0,37.4,31.0,50.0,35.3,28.0,98,92,86,29.97,29.72,10,5,15,0.00
2012-12-11,36.0,31.3,29.0,29.0,26.1,24.0,92,81,66,30.23,29.97,8,3,12,0.00
2012-12-12,44.0,33.1,25.0,30.0,26.3,24.0,96,77,53,30.40,30.23,5,1,7,0.80
2012-12-13,46.0,36.4,29.0,30.0,26.5,25.0,86,68,53,30.38,30.26,5,1,7,0.80
2012-12-14,54.0,41.6,31.0,31.0,28.3,26.0,83,61,37,30.30,30.15,9,2,13,0.10
2012-12-15,54.0,47.3,43.0,51.0,40.5,30.0,95,78,56,30.15,29.76,10,5,16,0.10
2012-12-16,58.0,54.0,46.0,55.0,49.3,45.0,97,85,64,29.78,29.67,9,4,14,0.10
2012-12-17,46.0,43.0,39.0,46.0,42.8,39.0,99,99,95,29.75,29.56,8,2,13,0.00
2012-12-18,42.0,39.0,37.0,41.0,36.8,35.0,99,92,82,29.88,29.67,9,5,16,0.00
2012-12-19,46.0,40.8,35.0,41.0,36.4,32.0,91,84,78,30.08,29.79,9,4,15,0.00
2012-12-20,54.0,44.6,30.0,51.0,40.3,28.0,99,85,59,29.88,29.23,20,10,37,0.20
2012-12-21,30.0,26.5,24.0,28.0,23.2,20.0,97,87,81,30.15,29.55,17,9,29,0.10
2012-12-22,33.0,26.4,18.0,25.0,20.9,16.0,93,80,67,30.28,30.06,7,3,10,0.20
2012-12-23,47.0,35.9,28.0,35.0,28.0,22.0,88,73,53,30.06,29.93,6,1,9,0.10
2012-12-24,41.0,35.0,0.0,40.0,32.8,-2.0,98,92,84,30.03,29.78,9,3,14,0.00
2012-12-25,34.0,32.2,0.0,31.0,27.3,-99.9,96,87,83,30.20,30.01,9,4,16,0.00
2012-12-26,34.0,30.3,29.0,30.0,28.9,26.0,99,94,83,30.01,29.62,14,8,23,0.00
2012-12-27,33.0,29.1,25.0,29.0,26.5,24.0,95,90,84,30.19,29.99,7,2,13,0.00
2012-12-28,33.0,30.3,27.0,31.0,28.2,26.0,98,92,84,30.16,29.82,7,1,10,0.00
2012-12-29,32.0,29.0,25.0,31.0,26.8,-99.9,99,94,84,30.26,29.77,8,3,15,0.00
2012-12-30,28.0,23.2,16.0,23.0,17.8,-99.9,95,85,75,30.46,30.26,9,3,18,0.00
2012-12-31,37.0,30.4,23.0,33.0,28.3,22.0,99,92,71,30.33,30.07,8,4,14,0.20
2013-1-1,32.0,29.3,22.0,32.0,25.3,-99.9,99,92,86,30.18,30.05,6,1,9,0.10